Tracking 19563 objects as of 20-Mar-2019
HD Live streaming from Space Station
objects crossing your sky now

HORIZONS 1 (GALAXY 13)

Track HORIZONS 1 (GALAXY 13) now!
HORIZONS 1 (GALAXY 13) is classified as:


NORAD ID: 27954
Int'l Code: 2003-044A
Perigee: 35,789.3 km
Apogee: 35,799.3 km
Inclination: 0.0 °
Period: 1,436.1 minutes
Semi major axis: 42165 km
RCS: 25.4101 m2 (large)
Launch date: October 1, 2003
Source: United States (US)
Launch site: SEA LAUNCH (SEAL)

Horizons 1 is Ku-band payload; C-band is on Galaxy 13.
aabbcc
Your satellite tracking list
Your tracking list is empty




NASA's NSSDC Master Catalog

Two Line Element Set (TLE):
1 27954U 03044A   19078.56501156 +.00000024 +00000-0 +00000-0 0  9998
2 27954 000.0247 129.1281 0001185 064.9581 059.1021 01.00269743056623
Source of the keplerian elements: AFSPC